This demonstration page uses our WeatherBlox Daily Observations layout. Learn more.

Left ArrowRight Arrow

41.86663, -103.66717

Hourly Observations for July 1, 2022

Temp ( °F °C ) Dew Point ( °F °C ) Humidity (%) Winds ( mph kmh ) Pressure ( in mb ) Visibility ( mi km ) Precip ( " mm )
12:53 am 00:53 Mostly Cloudy 61 16.1 56 13.3 84 84 SSE 5 7 30.02 1017 10 16 0.00 0.00
1:53 am 01:53 Clear 60 15.6 57 13.9 90 90 NW 6 9 30.04 1017 10 16 0.00 0.00
2:53 am 02:53 Clear 59 15 56 13.3 90 90 NW 5 7 30.03 1017 10 16 0.00 0.00
3:53 am 03:53 Clear 58 14.4 56 13.3 93 93 W 3 6 30.04 1017 10 16 0.00 0.00
4:53 am 04:53 Mostly Clear 58 14.4 55 12.8 90 90 W 5 7 30.05 1018 10 16 0.00 0.00
5:53 am 05:53 Cloudy 59 15 56 13.3 90 90 NNW 6 9 30.06 1018 8 13 0.00 0.00
6:53 am 06:53 Mostly Cloudy 60 15.6 57 13.9 90 90 Calm 30.07 1018 10 16 0.00 0.00
7:53 am 07:53 Partly Cloudy 66 18.9 57 13.9 73 73 NW 3 6 30.10 1019 10 16 0.00 0.00
8:53 am 08:53 Sunny 69 20.6 55 12.8 61 61 E 6 9 30.09 1019 10 16 0.00 0.00
9:53 am 09:53 Sunny 70 21.1 55 12.8 59 59 SE 10 17 30.08 1019 10 16 0.00 0.00
10:53 am 10:53 Sunny 73 22.8 56 13.3 55 55 SE 12 19 30.06 1018 10 16 0.00 0.00
11:53 am 11:53 Sunny 75 23.9 57 13.9 54 54 VRB 5 7 30.04 1017 10 16 0.00 0.00
12:53 pm 12:53 Sunny 79 26.1 58 14.4 49 49 SSE 10 17 30.01 1016 10 16 0.00 0.00
1:53 pm 13:53 Sunny 81 27.2 59 15 47 47 SSE 10 17 29.99 1016 10 16 0.00 0.00
2:53 pm 14:53 Sunny 84 28.9 58 14.4 41 41 SSE 14 22 29.95 1014 10 16 0.00 0.00
3:53 pm 15:53 Sunny 85 29.4 56 13.3 37 37 SE 13 20 29.91 1013 10 16 0.00 0.00
4:53 pm 16:53 Sunny 86 30 56 13.3 36 36 SE 15 24 29.87 1012 10 16 0.00 0.00
5:53 pm 17:53 Sunny 86 30 54 12.2 33 33 SSE 17 28 29.85 1011 10 16 0.00 0.00
6:53 pm 18:53 Sunny 82 27.8 56 13.3 41 41 E 6 9 29.90 1012 10 16 0.00 0.00
7:24 pm 19:24 Partly Cloudy with Nearby Thunderstorms 81 27.2 57 13.9 44 44 WSW 5 7 29.76 1008 10 16 0.00 0.00
7:44 pm 19:44 Windy with Storms Likely 69 20.6 53 11.7 57 57 N 20 31 29.87 1012 10 16 0.00 0.00
7:53 pm 19:53 Partly Cloudy with Thunderstorms 67 19.4 55 12.8 66 66 undefined N/A 29.96 1015 8 13 0.01 0.25
8:04 pm 20:04 Partly Cloudy with Nearby Thunderstorms 66 18.9 56 13.3 70 70 NNE 14 22 29.90 1012 10 16 0.00 0.00
8:17 pm 20:17 undefined 66 18.9 57 13.9 73 73 NE 14 22 29.87 1011 10 16 0.00 0.00
8:53 pm 20:53 Mostly Clear 67 19.4 55 12.8 66 66 NE 10 17 29.95 1014 10 16 0.00 0.00
9:53 pm 21:53 Cloudy 66 18.9 57 13.9 73 73 S 14 22 29.98 1015 10 16 0.00 0.00
10:53 pm 22:53 Clear 66 18.9 55 12.8 68 68 SE 6 9 29.93 1014 10 16 0.00 0.00
11:53 pm 23:53 Clear 65 18.3 56 13.3 73 73 SSE 6 9 29.94 1014 10 16 0.00 0.00

Powered by AerisWeather